Location: Handeloh
(53.2500°N, 9.8330°E)
Time: 22:26:12
(UTC+01:00)

S-56A Canister/Altair - Pass Details

Date: 21 November 2019
Orbit: 633 x 2499 km, 38.9° (Epoch: 06 December)

Event Time Altitude Azimuth Distance (km) Brightness Sun altitude
Rises 15:17:24 0° 203° (SSW) 5,655 13.5 6.0°
Reaches altitude 10° 15:23:15 10° 186° (S) 4,296 12.3 5.4°
Maximum altitude 15:29:13 16° 153° (SSE) 3,380 11.1 4.8°
Drops below altitude 10° 15:34:10 10° 119° (ESE) 3,449 10.7 4.2°
Sets 15:38:02 0° 99° (E) 4,084 10.9 3.8°
